{"data":{"norad_id":63185,"intl_designator":"2025-048C","name":"STARLINK-11618 [DTC]","alt_names":[],"object_type":"PAYLOAD","status":"ACTIVE","operator":null,"country":"US","launch_date":"2025-03-13","launch_site_code":"AFETR","launch_vehicle":null,"mission":null,"orbit_class":"UNKNOWN","rcs_meters":null,"size_class":null,"mass_kg":null,"dimensions":null,"purposes":["comms"],"wikipedia_slug":null,"has_3d_model":false,"image_url":null,"decayed_at":null,"tle_current":{"epoch":"2026-09-21T21:47:44.744928Z","epoch_age_seconds":40609,"freshness":"FRESH","line1":"1 63185U 25048C   26264.90815677  .00122401  00000+0  94204-3 0  9996","line2":"2 63185  43.0006 216.9429 0001600 250.6033 109.4662 15.70874513 89373","mean_motion":15.70874513,"eccentricity":0.00016,"inclination_deg":43.0006,"raan_deg":216.9429,"arg_perigee_deg":250.6033,"mean_anomaly_deg":109.4662,"bstar":0.00094204,"rev_number":8937,"period_min":91.668684422789,"perigee_km":355.31889341441,"apogee_km":357.47394410842,"semimajor_km":6734.5334187614,"source":"CELESTRAK","updated_at":"2026-09-22T09:00:49.794854Z"}}}